ONEWEB-0026 (45139 NORAD) Tracking and Keplerian Element Data

This shows tracking and keplerian element data for the satellite.

Feedback or suggestion? Click here.




ElementValue
Catalog45139
NameONEWEB-0026
Epoch Orbit3992
Epoch Day297.91667824
Epoch Year2020
RAAN81.6154
Inclination87.5435
Eccentricity0.002339
Argument of Perigee71.1503
Mean Anonmoly107.3044
Mean Motion14.93909427
Decay Rate-1.171E-05
L11 45139U 20008J 20297.91667824 -.00001171 00000-0 -11242-3 0 9990
L22 45139 87.5435 81.6154 0023390 71.1503 107.3044 14.93909427 39925

Live tracking and technical data element details for ONEWEB-0026 (NORAD 45139). ONEWEB-0026 can be tracked NOW for your location showing map with azimuth and elevation plus other details from your city location.

Track the satellite on the map from your city or location and see movement details for azimuth, elevation, latitude, longitude, range, height, and movement on the map or in text.







IsCatalogInMostPopularTable: catalog: 45139, numindb: 54
Update: records affected: 1



GetName: 45139 ONEWEB-0026

Hit Count: updated at: Sat, 24 Oct 2020 23:21:19 GMT